owner,sensor,date,latitude,longitude,vertical_datum,wind_speed,wind_to_direction,wind_speed_of_gust,qcFlag 
ADCP,ioos:station:wmo:42390:1,2012-03-01T00:30:00Z,26.1290,-94.8980,1.0,5.1,150.0,99.0,'11111222,11111222,11144222' 
ADCP,ioos:station:wmo:42390:1,2012-03-01T01:30:00Z,26.1290,-94.8980,1.0,5.8,151.0,99.0,'11111222,11111222,11144222' 
ADCP,ioos:station:wmo:42390:1,2012-03-01T02:30:00Z,26.1290,-94.8980,1.0,5.7,146.0,99.0,'11111222,11111222,11144222' 
ADCP,ioos:station:wmo:42390:1,2012-03-01T03:30:00Z,26.1290,-94.8980,1.0,7.9,139.0,99.0,'11111222,11111222,11144222' 
ADCP,ioos:station:wmo:42390:1,2012-03-01T04:30:00Z,26.1290,-94.8980,1.0,8.7,140.0,99.0,'11111222,11111222,11144222' 
ADCP,ioos:station:wmo:42390:1,2012-03-01T05:30:00Z,26.1290,-94.8980,1.0,7.9,150.0,99.0,'11111222,11111222,11144222' 
ADCP,ioos:station:wmo:42390:1,2012-03-01T06:30:00Z,26.1290,-94.8980,1.0,8.7,154.0,99.0,'11111222,11111222,11144222' 
ADCP,ioos:station:wmo:42390:1,2012-03-01T07:30:00Z,26.1290,-94.8980,1.0,9.8,151.0,99.0,'11111222,11111222,11144222' 
ADCP,ioos:station:wmo:42390:1,2012-03-01T08:30:00Z,26.1290,-94.8980,1.0,10.2,150.0,99.0,'11111222,11111222,11144222' 
ADCP,ioos:station:wmo:42390:1,2012-03-01T09:30:00Z,26.1290,-94.8980,1.0,9.7,150.0,99.0,'11111222,11111222,11144222' 
ADCP,ioos:station:wmo:42390:1,2012-03-01T10:30:00Z,26.1290,-94.8980,1.0,10.4,150.0,99.0,'11111222,11111222,11144222' 
ADCP,ioos:station:wmo:42390:1,2012-03-01T11:30:00Z,26.1290,-94.8980,1.0,9.4,149.0,99.0,'11111222,11111222,11144222' 
ADCP,ioos:station:wmo:42390:1,2012-03-01T12:30:00Z,26.1290,-94.8980,1.0,10.8,140.0,99.0,'11111222,11111222,11144222' 
ADCP,ioos:station:wmo:42390:1,2012-03-01T13:30:00Z,26.1290,-94.8980,1.0,11.0,140.0,99.0,'11111222,11111222,11144222' 
ADCP,ioos:station:wmo:42390:1,2012-03-01T14:30:00Z,26.1290,-94.8980,1.0,11.1,140.0,99.0,'11111222,11111222,11144222' 
ADCP,ioos:station:wmo:42390:1,2012-03-01T15:30:00Z,26.1290,-94.8980,1.0,10.2,140.0,99.0,'11111222,11111222,11144222' 
ADCP,ioos:station:wmo:42390:1,2012-03-01T16:30:00Z,26.1290,-94.8980,1.0,10.5,140.0,99.0,'11111222,11111222,11144222' 
ADCP,ioos:station:wmo:42390:1,2012-03-01T17:30:00Z,26.1290,-94.8980,1.0,9.7,140.0,99.0,'11111222,11111222,11144222' 
ADCP,ioos:station:wmo:42390:1,2012-03-01T18:30:00Z,26.1290,-94.8980,1.0,9.3,140.0,99.0,'11111222,11111222,11144222' 
ADCP,ioos:station:wmo:42390:1,2012-03-01T19:30:00Z,26.1290,-94.8980,1.0,7.7,147.0,99.0,'11111222,11111222,11144222' 
ADCP,ioos:station:wmo:42390:1,2012-03-01T20:30:00Z,26.1290,-94.8980,1.0,8.0,150.0,99.0,'11111222,11111222,11144222' 
ADCP,ioos:station:wmo:42390:1,2012-03-01T21:30:00Z,26.1290,-94.8980,1.0,8.9,150.0,99.0,'11111222,11111222,11144222' 
ADCP,ioos:station:wmo:42390:1,2012-03-01T22:30:00Z,26.1290,-94.8980,1.0,8.7,150.0,99.0,'11111222,11111222,11144222' 
ADCP,ioos:station:wmo:42390:1,2012-03-01T23:30:00Z,26.1290,-94.8980,1.0,8.8,158.0,99.0,'11111222,11111222,11144222' 
ADCP,ioos:station:wmo:42390:1,2012-03-02T00:30:00Z,26.1290,-94.8980,1.0,9.0,160.0,99.0,'11111222,11111222,11144222' 
ADCP,ioos:station:wmo:42390:1,2012-03-02T01:30:00Z,26.1290,-94.8980,1.0,10.0,159.0,99.0,'11111222,11111222,11144222' 
ADCP,ioos:station:wmo:42390:1,2012-03-02T02:30:00Z,26.1290,-94.8980,1.0,9.7,156.0,99.0,'11111222,11111222,11144222' 
ADCP,ioos:station:wmo:42390:1,2012-03-02T03:30:00Z,26.1290,-94.8980,1.0,9.9,150.0,99.0,'11111222,11111222,11144222' 
ADCP,ioos:station:wmo:42390:1,2012-03-02T04:30:00Z,26.1290,-94.8980,1.0,10.4,150.0,99.0,'11111222,11111222,11144222' 
ADCP,ioos:station:wmo:42390:1,2012-03-02T05:30:00Z,26.1290,-94.8980,1.0,10.9,150.0,99.0,'11111222,11111222,11144222' 
ADCP,ioos:station:wmo:42390:1,2012-03-02T06:30:00Z,26.1290,-94.8980,1.0,10.8,150.0,99.0,'11111222,11111222,11144222' 
ADCP,ioos:station:wmo:42390:1,2012-03-02T07:30:00Z,26.1290,-94.8980,1.0,10.9,150.0,99.0,'11111222,11111222,11144222' 
ADCP,ioos:station:wmo:42390:1,2012-03-02T08:30:00Z,26.1290,-94.8980,1.0,10.1,150.0,99.0,'11111222,11111222,11144222' 
ADCP,ioos:station:wmo:42390:1,2012-03-02T09:30:00Z,26.1290,-94.8980,1.0,9.2,149.0,99.0,'11111222,11111222,11144222' 
ADCP,ioos:station:wmo:42390:1,2012-03-02T10:30:00Z,26.1290,-94.8980,1.0,9.5,140.0,99.0,'11111222,11111222,11144222' 
ADCP,ioos:station:wmo:42390:1,2012-03-02T11:30:00Z,26.1290,-94.8980,1.0,9.8,140.0,99.0,'11111222,11111222,11144222' 
ADCP,ioos:station:wmo:42390:1,2012-03-02T12:30:00Z,26.1290,-94.8980,1.0,10.1,145.0,99.0,'11111222,11111222,11144222' 
ADCP,ioos:station:wmo:42390:1,2012-03-02T13:30:00Z,26.1290,-94.8980,1.0,10.9,147.0,99.0,'11111222,11111222,11144222' 
ADCP,ioos:station:wmo:42390:1,2012-03-02T14:30:00Z,26.1290,-94.8980,1.0,11.1,150.0,99.0,'11111222,11111222,11144222' 
ADCP,ioos:station:wmo:42390:1,2012-03-02T15:30:00Z,26.1290,-94.8980,1.0,10.8,148.0,99.0,'11111222,11111222,11144222' 
ADCP,ioos:station:wmo:42390:1,2012-03-02T16:30:00Z,26.1290,-94.8980,1.0,11.2,150.0,99.0,'11111222,11111222,11144222' 
ADCP,ioos:station:wmo:42390:1,2012-03-02T17:30:00Z,26.1290,-94.8980,1.0,12.7,150.0,99.0,'11111222,11111222,11144222' 
ADCP,ioos:station:wmo:42390:1,2012-03-02T18:30:00Z,26.1290,-94.8980,1.0,12.4,150.0,99.0,'11111222,11111222,11144222' 
ADCP,ioos:station:wmo:42390:1,2012-03-02T20:30:00Z,26.1290,-94.8980,1.0,11.0,160.0,99.0,'11111222,11111222,11144222' 
ADCP,ioos:station:wmo:42390:1,2012-03-02T21:30:00Z,26.1290,-94.8980,1.0,10.4,160.0,99.0,'11111222,11111222,11144222' 
ADCP,ioos:station:wmo:42390:1,2012-03-02T22:30:00Z,26.1290,-94.8980,1.0,9.8,151.0,99.0,'11111222,11111222,11144222' 
ADCP,ioos:station:wmo:42390:1,2012-03-02T23:30:00Z,26.1290,-94.8980,1.0,8.6,150.0,99.0,'11111222,11111222,11144222' 
ADCP,ioos:station:wmo:42390:1,2012-03-03T00:30:00Z,26.1290,-94.8980,1.0,6.5,153.0,99.0,'11111222,11111222,11144222' 
ADCP,ioos:station:wmo:42390:1,2012-03-03T01:30:00Z,26.1290,-94.8980,1.0,6.7,146.0,99.0,'11111222,11111222,11144222' 
ADCP,ioos:station:wmo:42390:1,2012-03-03T02:30:00Z,26.1290,-94.8980,1.0,7.9,141.0,99.0,'11111222,11111222,11144222' 
ADCP,ioos:station:wmo:42390:1,2012-03-03T03:30:00Z,26.1290,-94.8980,1.0,8.2,144.0,99.0,'11111222,11111222,11144222' 
ADCP,ioos:station:wmo:42390:1,2012-03-03T04:30:00Z,26.1290,-94.8980,1.0,9.4,140.0,99.0,'11111222,11111222,11144222' 
ADCP,ioos:station:wmo:42390:1,2012-03-03T05:30:00Z,26.1290,-94.8980,1.0,9.4,140.0,99.0,'11111222,11111222,11144222' 
ADCP,ioos:station:wmo:42390:1,2012-03-03T06:30:00Z,26.1290,-94.8980,1.0,8.1,145.0,99.0,'11111222,11111222,11144222' 
ADCP,ioos:station:wmo:42390:1,2012-03-03T07:30:00Z,26.1290,-94.8980,1.0,8.9,147.0,99.0,'11111222,11111222,11144222' 
ADCP,ioos:station:wmo:42390:1,2012-03-03T08:30:00Z,26.1290,-94.8980,1.0,8.4,150.0,99.0,'11111222,11111222,11144222' 
ADCP,ioos:station:wmo:42390:1,2012-03-03T09:30:00Z,26.1290,-94.8980,1.0,7.9,150.0,99.0,'11111222,11111222,11144222' 
ADCP,ioos:station:wmo:42390:1,2012-03-03T10:30:00Z,26.1290,-94.8980,1.0,7.8,153.0,99.0,'11111222,11111222,11144222' 
ADCP,ioos:station:wmo:42390:1,2012-03-03T12:30:00Z,26.1290,-94.8980,1.0,2.4,215.0,99.0,'11111222,11111222,11144222' 
ADCP,ioos:station:wmo:42390:1,2012-03-03T13:30:00Z,26.1290,-94.8980,1.0,4.1,290.0,99.0,'11111222,11111222,11144222' 
ADCP,ioos:station:wmo:42390:1,2012-03-03T14:30:00Z,26.1290,-94.8980,1.0,6.5,318.0,99.0,'11111222,11111222,11144222' 
ADCP,ioos:station:wmo:42390:1,2012-03-03T15:30:00Z,26.1290,-94.8980,1.0,5.8,324.0,99.0,'11111222,11111222,11144222' 
ADCP,ioos:station:wmo:42390:1,2012-03-03T16:30:00Z,26.1290,-94.8980,1.0,5.3,333.0,99.0,'11111222,11111222,11144222' 
ADCP,ioos:station:wmo:42390:1,2012-03-03T17:30:00Z,26.1290,-94.8980,1.0,99.0,208.0,99.0,'11144222,11111222,11144222' 
ADCP,ioos:station:wmo:42390:1,2012-03-03T18:30:00Z,26.1290,-94.8980,1.0,14.0,22.0,99.0,'11111222,11111222,11144222' 
ADCP,ioos:station:wmo:42390:1,2012-03-03T19:30:00Z,26.1290,-94.8980,1.0,15.2,16.0,99.0,'11111222,11111222,11144222' 
ADCP,ioos:station:wmo:42390:1,2012-03-03T20:30:00Z,26.1290,-94.8980,1.0,15.0,350.0,99.0,'11111222,11111222,11144222' 
ADCP,ioos:station:wmo:42390:1,2012-03-03T21:30:00Z,26.1290,-94.8980,1.0,15.2,348.0,99.0,'11111222,11111222,11144222' 
ADCP,ioos:station:wmo:42390:1,2012-03-03T22:30:00Z,26.1290,-94.8980,1.0,15.7,341.0,99.0,'11111222,11111222,11144222' 
ADCP,ioos:station:wmo:42390:1,2012-03-04T00:30:00Z,26.1290,-94.8980,1.0,15.4,341.0,99.0,'11111222,11111222,11144222' 
ADCP,ioos:station:wmo:42390:1,2012-03-04T01:30:00Z,26.1290,-94.8980,1.0,14.7,339.0,99.0,'11111222,11111222,11144222' 
ADCP,ioos:station:wmo:42390:1,2012-03-04T02:30:00Z,26.1290,-94.8980,1.0,14.9,343.0,99.0,'11111222,11111222,11144222' 
ADCP,ioos:station:wmo:42390:1,2012-03-04T03:30:00Z,26.1290,-94.8980,1.0,16.3,344.0,99.0,'11111222,11111222,11144222' 
ADCP,ioos:station:wmo:42390:1,2012-03-04T04:30:00Z,26.1290,-94.8980,1.0,16.9,344.0,99.0,'11111222,11111222,11144222' 
ADCP,ioos:station:wmo:42390:1,2012-03-04T05:30:00Z,26.1290,-94.8980,1.0,18.1,17.0,99.0,'11111222,11111222,11144222' 
ADCP,ioos:station:wmo:42390:1,2012-03-04T06:30:00Z,26.1290,-94.8980,1.0,24.9,143.0,99.0,'11111222,11111222,11144222' 
ADCP,ioos:station:wmo:42390:1,2012-03-04T07:30:00Z,26.1290,-94.8980,1.0,26.3,175.0,99.0,'11111222,11111222,11144222' 
ADCP,ioos:station:wmo:42390:1,2012-03-04T08:30:00Z,26.1290,-94.8980,1.0,99.0,53.0,99.0,'11144222,11111222,11144222' 
ADCP,ioos:station:wmo:42390:1,2012-03-04T09:30:00Z,26.1290,-94.8980,1.0,40.4,342.0,99.0,'11111222,11111222,11144222' 
ADCP,ioos:station:wmo:42390:1,2012-03-04T10:30:00Z,26.1290,-94.8980,1.0,48.9,108.0,99.0,'11111222,11111222,11144222' 
ADCP,ioos:station:wmo:42390:1,2012-03-04T11:30:00Z,26.1290,-94.8980,1.0,99.0,198.0,99.0,'11144222,11111222,11144222' 
ADCP,ioos:station:wmo:42390:1,2012-03-04T12:30:00Z,26.1290,-94.8980,1.0,28.7,222.0,99.0,'11111222,11111222,11144222' 
ADCP,ioos:station:wmo:42390:1,2012-03-04T13:30:00Z,26.1290,-94.8980,1.0,99.0,63.0,99.0,'11144222,11111222,11144222' 
ADCP,ioos:station:wmo:42390:1,2012-03-04T15:30:00Z,26.1290,-94.8980,1.0,44.5,84.0,99.0,'11111222,11111222,11144222' 
ADCP,ioos:station:wmo:42390:1,2012-03-04T16:30:00Z,26.1290,-94.8980,1.0,99.0,8.0,99.0,'11144222,11111222,11144222' 
ADCP,ioos:station:wmo:42390:1,2012-03-04T17:30:00Z,26.1290,-94.8980,1.0,99.0,221.0,99.0,'11144222,11111222,11144222' 
ADCP,ioos:station:wmo:42390:1,2012-03-04T18:30:00Z,26.1290,-94.8980,1.0,99.0,72.0,99.0,'11144222,11111222,11144222' 
ADCP,ioos:station:wmo:42390:1,2012-03-04T19:30:00Z,26.1290,-94.8980,1.0,99.0,-9999.0,99.0,'11144222,99999999,11144222' 
ADCP,ioos:station:wmo:42390:1,2012-03-04T20:30:00Z,26.1290,-94.8980,1.0,99.0,-9999.0,99.0,'11144222,99999999,11144222' 
ADCP,ioos:station:wmo:42390:1,2012-03-04T21:30:00Z,26.1290,-94.8980,1.0,99.0,-9999.0,99.0,'11144222,99999999,11144222' 
ADCP,ioos:station:wmo:42390:1,2012-03-04T22:30:00Z,26.1290,-94.8980,1.0,99.0,-9999.0,99.0,'11144222,99999999,11144222' 
ADCP,ioos:station:wmo:42390:1,2012-03-04T23:30:00Z,26.1290,-94.8980,1.0,99.0,-9999.0,99.0,'11144222,99999999,11144222' 
ADCP,ioos:station:wmo:42390:1,2012-03-05T00:30:00Z,26.1290,-94.8980,1.0,99.0,-9999.0,99.0,'11144222,99999999,11144222' 
ADCP,ioos:station:wmo:42390:1,2012-03-05T01:30:00Z,26.1290,-94.8980,1.0,99.0,-9999.0,99.0,'11144222,99999999,11144222' 
ADCP,ioos:station:wmo:42390:1,2012-03-05T02:30:00Z,26.1290,-94.8980,1.0,99.0,-9999.0,99.0,'11144222,99999999,11144222' 
ADCP,ioos:station:wmo:42390:1,2012-03-05T03:30:00Z,26.1290,-94.8980,1.0,99.0,-9999.0,99.0,'11144222,99999999,11144222' 
ADCP,ioos:station:wmo:42390:1,2012-03-05T05:30:00Z,26.1290,-94.8980,1.0,99.0,-9999.0,99.0,'11144222,99999999,11144222' 
ADCP,ioos:station:wmo:42390:1,2012-03-05T06:30:00Z,26.1290,-94.8980,1.0,99.0,-9999.0,99.0,'11144222,99999999,11144222' 
ADCP,ioos:station:wmo:42390:1,2012-03-05T07:30:00Z,26.1290,-94.8980,1.0,99.0,-9999.0,99.0,'11144222,99999999,11144222' 
ADCP,ioos:station:wmo:42390:1,2012-03-05T08:30:00Z,26.1290,-94.8980,1.0,99.0,-9999.0,99.0,'11144222,99999999,11144222' 
ADCP,ioos:station:wmo:42390:1,2012-03-05T09:30:00Z,26.1290,-94.8980,1.0,99.0,-9999.0,99.0,'11144222,99999999,11144222' 
ADCP,ioos:station:wmo:42390:1,2012-03-05T10:30:00Z,26.1290,-94.8980,1.0,99.0,-9999.0,99.0,'11144222,99999999,11144222' 
ADCP,ioos:station:wmo:42390:1,2012-03-05T11:30:00Z,26.1290,-94.8980,1.0,99.0,-9999.0,99.0,'11144222,99999999,11144222' 
ADCP,ioos:station:wmo:42390:1,2012-03-05T12:30:00Z,26.1290,-94.8980,1.0,99.0,-9999.0,99.0,'11144222,99999999,11144222' 
ADCP,ioos:station:wmo:42390:1,2012-03-05T13:30:00Z,26.1290,-94.8980,1.0,99.0,-9999.0,99.0,'11144222,99999999,11144222' 
ADCP,ioos:station:wmo:42390:1,2012-03-05T14:30:00Z,26.1290,-94.8980,1.0,99.0,-9999.0,99.0,'11144222,99999999,11144222' 
ADCP,ioos:station:wmo:42390:1,2012-03-05T15:30:00Z,26.1290,-94.8980,1.0,99.0,-9999.0,99.0,'11144222,99999999,11144222' 
ADCP,ioos:station:wmo:42390:1,2012-03-05T16:30:00Z,26.1290,-94.8980,1.0,99.0,-9999.0,99.0,'11144222,99999999,11144222' 
ADCP,ioos:station:wmo:42390:1,2012-03-05T17:30:00Z,26.1290,-94.8980,1.0,99.0,-9999.0,99.0,'11144222,99999999,11144222' 
ADCP,ioos:station:wmo:42390:1,2012-03-05T18:30:00Z,26.1290,-94.8980,1.0,99.0,-9999.0,99.0,'11144222,99999999,11144222' 
ADCP,ioos:station:wmo:42390:1,2012-03-05T19:30:00Z,26.1290,-94.8980,1.0,99.0,-9999.0,99.0,'11144222,99999999,11144222' 
ADCP,ioos:station:wmo:42390:1,2012-03-05T20:30:00Z,26.1290,-94.8980,1.0,99.0,-9999.0,99.0,'11144222,99999999,11144222' 
ADCP,ioos:station:wmo:42390:1,2012-03-05T21:30:00Z,26.1290,-94.8980,1.0,99.0,-9999.0,99.0,'11144222,99999999,11144222' 
ADCP,ioos:station:wmo:42390:1,2012-03-05T22:30:00Z,26.1290,-94.8980,1.0,99.0,-9999.0,99.0,'11144222,99999999,11144222' 
ADCP,ioos:station:wmo:42390:1,2012-03-05T23:30:00Z,26.1290,-94.8980,1.0,99.0,-9999.0,99.0,'11144222,99999999,11144222' 
ADCP,ioos:station:wmo:42390:1,2012-03-06T00:30:00Z,26.1290,-94.8980,1.0,99.0,-9999.0,99.0,'11144222,99999999,11144222' 
ADCP,ioos:station:wmo:42390:1,2012-03-06T01:30:00Z,26.1290,-94.8980,1.0,99.0,-9999.0,99.0,'11144222,99999999,11144222' 
ADCP,ioos:station:wmo:42390:1,2012-03-06T02:30:00Z,26.1290,-94.8980,1.0,99.0,-9999.0,99.0,'11144222,99999999,11144222' 
ADCP,ioos:station:wmo:42390:1,2012-03-06T03:30:00Z,26.1290,-94.8980,1.0,99.0,-9999.0,99.0,'11144222,99999999,11144222' 
ADCP,ioos:station:wmo:42390:1,2012-03-06T04:30:00Z,26.1290,-94.8980,1.0,99.0,-9999.0,99.0,'11144222,99999999,11144222' 
ADCP,ioos:station:wmo:42390:1,2012-03-06T05:30:00Z,26.1290,-94.8980,1.0,99.0,-9999.0,99.0,'11144222,99999999,11144222' 
ADCP,ioos:station:wmo:42390:1,2012-03-06T06:30:00Z,26.1290,-94.8980,1.0,99.0,-9999.0,99.0,'11144222,99999999,11144222' 
ADCP,ioos:station:wmo:42390:1,2012-03-06T07:30:00Z,26.1290,-94.8980,1.0,99.0,-9999.0,99.0,'11144222,99999999,11144222' 
ADCP,ioos:station:wmo:42390:1,2012-03-06T08:30:00Z,26.1290,-94.8980,1.0,99.0,-9999.0,99.0,'11144222,99999999,11144222' 
ADCP,ioos:station:wmo:42390:1,2012-03-06T09:30:00Z,26.1290,-94.8980,1.0,99.0,-9999.0,99.0,'11144222,99999999,11144222' 
ADCP,ioos:station:wmo:42390:1,2012-03-06T10:30:00Z,26.1290,-94.8980,1.0,99.0,-9999.0,99.0,'11144222,99999999,11144222' 
ADCP,ioos:station:wmo:42390:1,2012-03-06T11:30:00Z,26.1290,-94.8980,1.0,99.0,-9999.0,99.0,'11144222,99999999,11144222' 
ADCP,ioos:station:wmo:42390:1,2012-03-06T12:30:00Z,26.1290,-94.8980,1.0,99.0,-9999.0,99.0,'11144222,99999999,11144222' 
ADCP,ioos:station:wmo:42390:1,2012-03-06T13:30:00Z,26.1290,-94.8980,1.0,99.0,-9999.0,99.0,'11144222,99999999,11144222' 
ADCP,ioos:station:wmo:42390:1,2012-03-06T14:30:00Z,26.1290,-94.8980,1.0,99.0,-9999.0,99.0,'11144222,99999999,11144222' 
ADCP,ioos:station:wmo:42390:1,2012-03-06T15:30:00Z,26.1290,-94.8980,1.0,99.0,-9999.0,99.0,'11144222,99999999,11144222' 
ADCP,ioos:station:wmo:42390:1,2012-03-06T16:30:00Z,26.1290,-94.8980,1.0,99.0,-9999.0,99.0,'11144222,99999999,11144222' 
ADCP,ioos:station:wmo:42390:1,2012-03-06T17:30:00Z,26.1290,-94.8980,1.0,99.0,-9999.0,99.0,'11144222,99999999,11144222' 
ADCP,ioos:station:wmo:42390:1,2012-03-06T18:30:00Z,26.1290,-94.8980,1.0,99.0,-9999.0,99.0,'11144222,99999999,11144222' 
ADCP,ioos:station:wmo:42390:1,2012-03-06T19:30:00Z,26.1290,-94.8980,1.0,99.0,-9999.0,99.0,'11144222,99999999,11144222' 
ADCP,ioos:station:wmo:42390:1,2012-03-06T20:30:00Z,26.1290,-94.8980,1.0,99.0,-9999.0,99.0,'11144222,99999999,11144222' 
ADCP,ioos:station:wmo:42390:1,2012-03-06T21:30:00Z,26.1290,-94.8980,1.0,99.0,-9999.0,99.0,'11144222,99999999,11144222' 
ADCP,ioos:station:wmo:42390:1,2012-03-06T22:30:00Z,26.1290,-94.8980,1.0,99.0,-9999.0,99.0,'11144222,99999999,11144222' 
ADCP,ioos:station:wmo:42390:1,2012-03-06T23:30:00Z,26.1290,-94.8980,1.0,99.0,-9999.0,99.0,'11144222,99999999,11144222' 
ADCP,ioos:station:wmo:42390:1,2012-03-07T00:30:00Z,26.1290,-94.8980,1.0,99.0,-9999.0,99.0,'11144222,99999999,11144222' 
ADCP,ioos:station:wmo:42390:1,2012-03-07T01:30:00Z,26.1290,-94.8980,1.0,99.0,-9999.0,99.0,'11144222,99999999,11144222' 
ADCP,ioos:station:wmo:42390:1,2012-03-07T02:30:00Z,26.1290,-94.8980,1.0,99.0,-9999.0,99.0,'11144222,99999999,11144222' 
ADCP,ioos:station:wmo:42390:1,2012-03-07T03:30:00Z,26.1290,-94.8980,1.0,99.0,-9999.0,99.0,'11144222,99999999,11144222' 
ADCP,ioos:station:wmo:42390:1,2012-03-07T04:30:00Z,26.1290,-94.8980,1.0,99.0,-9999.0,99.0,'11144222,99999999,11144222' 
ADCP,ioos:station:wmo:42390:1,2012-03-07T06:30:00Z,26.1290,-94.8980,1.0,99.0,-9999.0,99.0,'11144222,99999999,11144222' 
ADCP,ioos:station:wmo:42390:1,2012-03-07T07:30:00Z,26.1290,-94.8980,1.0,99.0,-9999.0,99.0,'11144222,99999999,11144222' 
ADCP,ioos:station:wmo:42390:1,2012-03-07T08:30:00Z,26.1290,-94.8980,1.0,99.0,-9999.0,99.0,'11144222,99999999,11144222' 
ADCP,ioos:station:wmo:42390:1,2012-03-07T09:30:00Z,26.1290,-94.8980,1.0,99.0,-9999.0,99.0,'11144222,99999999,11144222' 
ADCP,ioos:station:wmo:42390:1,2012-03-07T10:30:00Z,26.1290,-94.8980,1.0,99.0,-9999.0,99.0,'11144222,99999999,11144222' 
ADCP,ioos:station:wmo:42390:1,2012-03-07T11:30:00Z,26.1290,-94.8980,1.0,99.0,-9999.0,99.0,'11144222,99999999,11144222' 
ADCP,ioos:station:wmo:42390:1,2012-03-07T12:30:00Z,26.1290,-94.8980,1.0,99.0,-9999.0,99.0,'11144222,99999999,11144222' 
ADCP,ioos:station:wmo:42390:1,2012-03-07T13:30:00Z,26.1290,-94.8980,1.0,99.0,-9999.0,99.0,'11144222,99999999,11144222' 
ADCP,ioos:station:wmo:42390:1,2012-03-07T14:30:00Z,26.1290,-94.8980,1.0,99.0,-9999.0,99.0,'11144222,99999999,11144222' 
ADCP,ioos:station:wmo:42390:1,2012-03-07T15:30:00Z,26.1290,-94.8980,1.0,99.0,-9999.0,99.0,'11144222,99999999,11144222' 
ADCP,ioos:station:wmo:42390:1,2012-03-07T16:30:00Z,26.1290,-94.8980,1.0,99.0,-9999.0,99.0,'11144222,99999999,11144222' 
ADCP,ioos:station:wmo:42390:1,2012-03-07T17:30:00Z,26.1290,-94.8980,1.0,99.0,-9999.0,99.0,'11144222,99999999,11144222' 
ADCP,ioos:station:wmo:42390:1,2012-03-07T18:30:00Z,26.1290,-94.8980,1.0,99.0,-9999.0,99.0,'11144222,99999999,11144222' 
ADCP,ioos:station:wmo:42390:1,2012-03-07T19:30:00Z,26.1290,-94.8980,1.0,99.0,-9999.0,99.0,'11144222,99999999,11144222' 
ADCP,ioos:station:wmo:42390:1,2012-03-07T20:30:00Z,26.1290,-94.8980,1.0,99.0,-9999.0,99.0,'11144222,99999999,11144222' 
ADCP,ioos:station:wmo:42390:1,2012-03-07T21:30:00Z,26.1290,-94.8980,1.0,99.0,-9999.0,99.0,'11144222,99999999,11144222' 
ADCP,ioos:station:wmo:42390:1,2012-03-07T22:30:00Z,26.1290,-94.8980,1.0,99.0,-9999.0,99.0,'11144222,99999999,11144222' 
ADCP,ioos:station:wmo:42390:1,2012-03-07T23:30:00Z,26.1290,-94.8980,1.0,99.0,-9999.0,99.0,'11144222,99999999,11144222' 
ADCP,ioos:station:wmo:42390:1,2012-03-08T00:30:00Z,26.1290,-94.8980,1.0,99.0,-9999.0,99.0,'11144222,99999999,11144222' 
ADCP,ioos:station:wmo:42390:1,2012-03-08T01:30:00Z,26.1290,-94.8980,1.0,99.0,-9999.0,99.0,'11144222,99999999,11144222' 
ADCP,ioos:station:wmo:42390:1,2012-03-08T02:30:00Z,26.1290,-94.8980,1.0,99.0,-9999.0,99.0,'11144222,99999999,11144222' 
ADCP,ioos:station:wmo:42390:1,2012-03-08T03:30:00Z,26.1290,-94.8980,1.0,99.0,-9999.0,99.0,'11144222,99999999,11144222' 
ADCP,ioos:station:wmo:42390:1,2012-03-08T04:30:00Z,26.1290,-94.8980,1.0,99.0,-9999.0,99.0,'11144222,99999999,11144222' 
ADCP,ioos:station:wmo:42390:1,2012-03-08T05:30:00Z,26.1290,-94.8980,1.0,99.0,-9999.0,99.0,'11144222,99999999,11144222' 
ADCP,ioos:station:wmo:42390:1,2012-03-08T07:30:00Z,26.1290,-94.8980,1.0,99.0,-9999.0,99.0,'11144222,99999999,11144222' 
ADCP,ioos:station:wmo:42390:1,2012-03-08T08:30:00Z,26.1290,-94.8980,1.0,99.0,-9999.0,99.0,'11144222,99999999,11144222' 
ADCP,ioos:station:wmo:42390:1,2012-03-08T09:30:00Z,26.1290,-94.8980,1.0,99.0,-9999.0,99.0,'11144222,99999999,11144222' 
ADCP,ioos:station:wmo:42390:1,2012-03-08T10:30:00Z,26.1290,-94.8980,1.0,99.0,-9999.0,99.0,'11144222,99999999,11144222' 
ADCP,ioos:station:wmo:42390:1,2012-03-08T11:30:00Z,26.1290,-94.8980,1.0,99.0,-9999.0,99.0,'11144222,99999999,11144222' 
ADCP,ioos:station:wmo:42390:1,2012-03-08T13:30:00Z,26.1290,-94.8980,1.0,99.0,-9999.0,99.0,'11144222,99999999,11144222' 
ADCP,ioos:station:wmo:42390:1,2012-03-08T14:30:00Z,26.1290,-94.8980,1.0,99.0,-9999.0,99.0,'11144222,99999999,11144222' 
ADCP,ioos:station:wmo:42390:1,2012-03-08T15:30:00Z,26.1290,-94.8980,1.0,99.0,-9999.0,99.0,'11144222,99999999,11144222' 
ADCP,ioos:station:wmo:42390:1,2012-03-08T16:30:00Z,26.1290,-94.8980,1.0,99.0,-9999.0,99.0,'11144222,99999999,11144222' 
ADCP,ioos:station:wmo:42390:1,2012-03-08T17:30:00Z,26.1290,-94.8980,1.0,99.0,-9999.0,99.0,'11144222,99999999,11144222' 
ADCP,ioos:station:wmo:42390:1,2012-03-08T18:30:00Z,26.1290,-94.8980,1.0,99.0,-9999.0,99.0,'11144222,99999999,11144222' 
ADCP,ioos:station:wmo:42390:1,2012-03-08T19:30:00Z,26.1290,-94.8980,1.0,99.0,-9999.0,99.0,'11144222,99999999,11144222' 
ADCP,ioos:station:wmo:42390:1,2012-03-08T20:30:00Z,26.1290,-94.8980,1.0,99.0,-9999.0,99.0,'11144222,99999999,11144222' 
ADCP,ioos:station:wmo:42390:1,2012-03-08T21:30:00Z,26.1290,-94.8980,1.0,99.0,-9999.0,99.0,'11144222,99999999,11144222' 
ADCP,ioos:station:wmo:42390:1,2012-03-08T22:30:00Z,26.1290,-94.8980,1.0,99.0,-9999.0,99.0,'11144222,99999999,11144222' 
ADCP,ioos:station:wmo:42390:1,2012-03-08T23:30:00Z,26.1290,-94.8980,1.0,99.0,-9999.0,99.0,'11144222,99999999,11144222' 
ADCP,ioos:station:wmo:42390:1,2012-03-09T00:30:00Z,26.1290,-94.8980,1.0,99.0,-9999.0,99.0,'11144222,99999999,11144222' 
ADCP,ioos:station:wmo:42390:1,2012-03-09T02:30:00Z,26.1290,-94.8980,1.0,99.0,-9999.0,99.0,'11144222,99999999,11144222' 
ADCP,ioos:station:wmo:42390:1,2012-03-09T03:30:00Z,26.1290,-94.8980,1.0,99.0,-9999.0,99.0,'11144222,99999999,11144222' 
ADCP,ioos:station:wmo:42390:1,2012-03-09T05:30:00Z,26.1290,-94.8980,1.0,99.0,-9999.0,99.0,'11144222,99999999,11144222' 
ADCP,ioos:station:wmo:42390:1,2012-03-09T06:30:00Z,26.1290,-94.8980,1.0,99.0,-9999.0,99.0,'11144222,99999999,11144222' 
ADCP,ioos:station:wmo:42390:1,2012-03-09T07:30:00Z,26.1290,-94.8980,1.0,99.0,-9999.0,99.0,'11144222,99999999,11144222' 
ADCP,ioos:station:wmo:42390:1,2012-03-09T08:30:00Z,26.1290,-94.8980,1.0,99.0,-9999.0,99.0,'11144222,99999999,11144222' 
ADCP,ioos:station:wmo:42390:1,2012-03-09T09:30:00Z,26.1290,-94.8980,1.0,99.0,-9999.0,99.0,'11144222,99999999,11144222' 
ADCP,ioos:station:wmo:42390:1,2012-03-09T10:30:00Z,26.1290,-94.8980,1.0,99.0,-9999.0,99.0,'11144222,99999999,11144222' 
ADCP,ioos:station:wmo:42390:1,2012-03-09T11:30:00Z,26.1290,-94.8980,1.0,99.0,-9999.0,99.0,'11144222,99999999,11144222' 
ADCP,ioos:station:wmo:42390:1,2012-03-09T12:30:00Z,26.1290,-94.8980,1.0,99.0,-9999.0,99.0,'11144222,99999999,11144222' 
ADCP,ioos:station:wmo:42390:1,2012-03-09T13:30:00Z,26.1290,-94.8980,1.0,99.0,-9999.0,99.0,'11144222,99999999,11144222' 
ADCP,ioos:station:wmo:42390:1,2012-03-09T14:30:00Z,26.1290,-94.8980,1.0,99.0,-9999.0,99.0,'11144222,99999999,11144222' 
ADCP,ioos:station:wmo:42390:1,2012-03-09T15:30:00Z,26.1290,-94.8980,1.0,99.0,-9999.0,99.0,'11144222,99999999,11144222' 
ADCP,ioos:station:wmo:42390:1,2012-03-09T16:30:00Z,26.1290,-94.8980,1.0,99.0,-9999.0,99.0,'11144222,99999999,11144222' 
ADCP,ioos:station:wmo:42390:1,2012-03-09T17:30:00Z,26.1290,-94.8980,1.0,99.0,-9999.0,99.0,'11144222,99999999,11144222' 